This is the latest recevied weather packets stored in our database for station/object KF0RZX-13. If no packets are shown the sender has not sent any weather packets the latest 10 day(s).
| Time | Temp. | Humidity | Pressure | Rain* | Wind** | Luminosity | Snow |
|---|---|---|---|---|---|---|---|
| 1787966552 | 27.78° C | 30% | 1019 hPa | 0 mm | - | - | - |
| 1787964750 | 28.89° C | 29% | 1018.6 hPa | 0 mm | - | - | - |
| 1787962935 | 28.89° C | 29% | 1018.6 hPa | 0 mm | - | - | - |
| 1787961128 | 32.22° C | 24% | 1017.6 hPa | 0 mm | - | - | - |
| 1787959321 | 33.89° C | 20% | 1017.3 hPa | 0 mm | - | - | - |
| 1787957516 | 31.11° C | 26% | 1017.9 hPa | 0 mm | - | - | - |
| 1787955711 | 30° C | 31% | 1017.6 hPa | 0 mm | - | - | - |
| 1787953906 | 32.78° C | 26% | 1017.9 hPa | 0 mm | - | - | - |
| 1787952107 | 32.78° C | 30% | 1018.3 hPa | 0 mm | - | - | - |
| 1787950296 | 32.78° C | 32% | 1018.6 hPa | 0 mm | - | - | - |
| 1787948491 | 33.89° C | 19% | 1018.6 hPa | 0 mm | - | - | - |
| 1787946687 | 35° C | 17% | 1019 hPa | 0 mm | - | - | - |
| 1787944881 | 35° C | 19% | 1019.3 hPa | 0 mm | - | - | - |
| 1787943077 | 32.78° C | 24% | 1019.6 hPa | 0 mm | - | - | - |
| 1787941271 | 32.22° C | 29% | 1020 hPa | 0 mm | - | - | - |
| 1787939467 | 30° C | 38% | 1020.7 hPa | 0 mm | - | - | - |
| 1787937662 | 28.89° C | 43% | 1021 hPa | 0 mm | - | - | - |
| 1787935856 | 27.22° C | 45% | 1021 hPa | 0 mm | - | - | - |
| 1787934051 | 27.22° C | 45% | 1021 hPa | 0 mm | - | - | - |
| 1787932246 | 23.89° C | 54% | 1021 hPa | 0 mm | - | - | - |
| 1787930441 | 23.89° C | 54% | 1021 hPa | 0 mm | - | - | - |
| 1787928636 | 22.22° C | 65% | 1021 hPa | 0 mm | - | - | - |
| 1787926831 | 18.89° C | 78% | 1021.3 hPa | 0 mm | - | - | - |
| 1787925026 | 17.78° C | 88% | 1021.3 hPa | 0 mm | - | - | - |
| 1787923225 | 16.11° C | 94% | 1021 hPa | 0 mm | - | - | - |
* Rain latest hour (hover to see other rain measurements)
** Current wind speed in m/s (hover to see current wind gust speed)